EST,Max TemperatureF,Mean TemperatureF,Min TemperatureF,Max Dew PointF,MeanDew PointF,Min DewpointF,Max Humidity, Mean Humidity, Min Humidity, Max Sea Level PressureIn, Mean Sea Level PressureIn, Min Sea Level PressureIn, Max VisibilityMiles, Mean VisibilityMiles, Min VisibilityMiles, Max Wind SpeedMPH, Mean Wind SpeedMPH, Max Gust SpeedMPH,PrecipitationIn, CloudCover, Events, WindDirDegrees
2013-2-1,22,16,9,18,7,0,80,67,53,30.39,30.10,29.81,10,6,1,26,14,33,T,7,Snow,269
2013-2-2,24,16,8,21,15,1,96,85,73,30.36,30.05,29.94,10,3,1,18,8,25,0.05,8,Snow,209
2013-2-3,25,22,18,21,18,9,88,80,71,30.09,29.90,29.81,10,4,0,23,9,32,T,8,Fog-Snow,267
2013-2-4,28,22,16,27,19,10,92,80,68,30.11,29.93,29.83,10,4,0,17,6,22,0.18,8,Fog-Snow,190
2013-2-5,32,30,27,28,26,20,100,82,63,29.98,29.88,29.81,10,3,0,17,5,24,0.07,8,Fog-Snow,257
2013-2-6,32,26,20,27,21,15,100,77,53,30.34,30.21,29.94,10,8,4,14,6,21,T,6,,276
2013-2-7,43,32,20,28,22,15,77,63,49,30.32,30.18,29.98,10,10,7,15,9,17,0.00,3,,95
2013-2-8,41,33,25,36,28,19,89,81,72,30.23,29.93,29.80,10,8,2,26,14,33,0.11,6,Rain-Snow,252
2013-2-9,33,28,23,19,17,14,81,64,47,30.44,30.36,30.24,10,10,9,17,6,23,0.00,4,,284
2013-2-10,51,36,21,36,19,13,68,49,29,30.36,30.17,29.94,10,10,9,25,8,35,T,4,Rain,122
2013-2-11,60,49,37,44,35,23,83,57,31,29.95,29.83,29.69,10,10,5,33,17,47,T,5,Rain,224
2013-2-12,44,39,33,24,23,21,64,52,40,30.11,30.01,29.94,10,10,10,26,10,35,0.00,4,,258
2013-2-13,39,33,26,31,27,20,100,78,56,29.91,29.77,29.67,10,4,0,14,5,18,0.12,7,Fog-Snow,297
2013-2-14,43,35,27,34,30,25,92,77,62,29.97,29.92,29.85,10,8,4,29,10,46,0.01,7,,209
2013-2-15,39,33,26,32,28,21,92,76,59,30.09,30.01,29.92,10,5,0,17,8,24,0.10,7,Fog-Snow,276
2013-2-16,28,24,20,22,16,11,88,69,50,30.09,30.00,29.93,10,8,1,18,5,23,T,7,Snow,277
2013-2-17,23,19,14,16,10,3,80,65,49,30.29,30.09,29.93,10,7,0,22,10,31,T,7,Snow,275
2013-2-18,45,29,12,28,15,4,67,53,39,30.32,30.16,29.87,10,10,10,17,9,21,0.00,1,,165
2013-2-19,47,35,22,37,26,13,85,64,42,30.00,29.81,29.68,10,7,1,40,19,51,0.20,8,Rain-Snow,237
2013-2-20,22,20,18,15,10,7,71,64,56,30.27,30.11,29.96,10,6,0,28,15,36,T,8,Snow,264
2013-2-21,27,23,19,16,13,11,77,66,55,30.36,30.28,30.17,10,8,2,14,9,20,T,6,Snow,296
2013-2-22,45,34,22,38,28,14,89,74,58,30.30,30.05,29.95,10,10,7,16,8,23,0.01,7,,90
2013-2-23,44,37,30,34,32,24,92,75,57,30.00,29.92,29.85,10,8,1,16,4,20,0.00,6,,291
2013-2-24,30,29,27,24,21,18,92,75,58,30.18,30.04,29.90,10,8,5,17,7,23,0.00,7,,257
2013-2-25,42,34,25,23,20,19,81,61,41,30.24,30.16,30.06,10,10,8,14,5,17,0.00,2,,70
2013-2-26,39,35,31,35,28,19,96,74,52,30.04,29.76,29.56,10,7,1,24,14,32,0.69,6,Rain,96
2013-2-27,41,37,33,39,34,28,93,82,70,29.70,29.62,29.52,10,9,5,17,10,25,0.17,8,Rain-Snow,231
2013-2-28,34,33,31,31,29,27,92,85,78,29.86,29.68,29.61,10,6,1,16,10,23,0.03,8,Rain-Snow,250